Previsão horária em Almaty

Hoje, 25 Junho, Sexta-feira

Tempo Temperatura Precipitação Vento Pressão Humidade
00:00 +16°C° 1.3 mm 2 m/s 686 mmHg 87%
01:00 +16°C° 1.3 mm 1 m/s 686 mmHg 90%
02:00 +16°C° 1.3 mm 1 m/s 686 mmHg 94%
03:00 +16°C° 2 mm 1 m/s 686 mmHg 94%
04:00 +16°C° 2 mm 1 m/s 686 mmHg 94%
05:00 +15°C° 0 mm 1 m/s 686 mmHg 93%
06:00 +16°C° 0.7 mm 1 m/s 686 mmHg 90%
07:00 +16°C° 0.7 mm 1 m/s 686 mmHg 86%
08:00 +18°C° 0.7 mm 1 m/s 686 mmHg 83%
09:00 +19°C° 0.3 mm 1 m/s 686 mmHg 78%
10:00 +20°C° 0.3 mm 1 m/s 686 mmHg 72%
11:00 +20°C° 0.3 mm 2 m/s 686 mmHg 67%
12:00 +21°C° 0.3 mm 2 m/s 686 mmHg 64%
13:00 +23°C° 0.3 mm 2 m/s 685 mmHg 61%
14:00 +24°C° 0.3 mm 2 m/s 685 mmHg 58%
15:00 +24°C° 0.4 mm 2 m/s 685 mmHg 58%
16:00 +23°C° 0.4 mm 2 m/s 685 mmHg 59%
17:00 +23°C° 0.4 mm 1 m/s 685 mmHg 59%
18:00 +22°C° 0.2 mm 1 m/s 685 mmHg 63%
19:00 +20°C° 0.2 mm 1 m/s 685 mmHg 68%
20:00 +19°C° 0.2 mm 1 m/s 686 mmHg 72%
21:00 +19°C° 0.1 mm 1 m/s 685 mmHg 71%
22:00 +18°C° 0.1 mm 1 m/s 685 mmHg 70%
23:00 +18°C° 0.1 mm 1 m/s 685 mmHg 69%

Amanhã, 26 Junho, Sábado

Tempo Temperatura Precipitação Vento Pressão Humidade
00:00 +16°C° 0 mm 1 m/s 685 mmHg 68%
01:00 +16°C° 0 mm 1 m/s 685 mmHg 66%
02:00 +15°C° 0 mm 1 m/s 685 mmHg 64%
03:00 +15°C° 0 mm 1 m/s 685 mmHg 64%
04:00 +15°C° 0 mm 1 m/s 685 mmHg 63%
05:00 +15°C° 0 mm 1 m/s 685 mmHg 63%
06:00 +18°C° 0 mm 1 m/s 685 mmHg 57%
07:00 +18°C° 0 mm 2 m/s 686 mmHg 52%
08:00 +20°C° 0 mm 2 m/s 686 mmHg 46%
09:00 +21°C° 0.1 mm 2 m/s 686 mmHg 45%
10:00 +23°C° 0.1 mm 2 m/s 686 mmHg 44%
11:00 +24°C° 0.1 mm 2 m/s 686 mmHg 42%
12:00 +25°C° 0.1 mm 2 m/s 686 mmHg 41%
13:00 +26°C° 0.1 mm 2 m/s 686 mmHg 41%
14:00 +26°C° 0.1 mm 2 m/s 686 mmHg 40%
15:00 +26°C° 0.1 mm 2 m/s 686 mmHg 41%
16:00 +26°C° 0.1 mm 2 m/s 686 mmHg 41%
17:00 +26°C° 0.1 mm 2 m/s 686 mmHg 42%
18:00 +24°C° 0.1 mm 2 m/s 686 mmHg 44%
19:00 +23°C° 0.1 mm 1 m/s 687 mmHg 46%
20:00 +21°C° 0.1 mm 1 m/s 687 mmHg 49%
21:00 +20°C° 0 mm 1 m/s 687 mmHg 50%
22:00 +20°C° 0 mm 1 m/s 687 mmHg 52%
23:00 +18°C° 0 mm 2 m/s 687 mmHg 54%

Depois de amanhã, 27 Junho, Domingo

Tempo Temperatura Precipitação Vento Pressão Humidade
00:00 +18°C° 0 mm 1 m/s 687 mmHg 55%
01:00 +18°C° 0 mm 1 m/s 687 mmHg 56%
02:00 +16°C° 0 mm 1 m/s 687 mmHg 57%
03:00 +16°C° 0 mm 1 m/s 687 mmHg 55%
04:00 +16°C° 0 mm 1 m/s 687 mmHg 54%
05:00 +16°C° 0 mm 1 m/s 687 mmHg 52%
06:00 +18°C° 0 mm 2 m/s 687 mmHg 46%
07:00 +20°C° 0 mm 2 m/s 688 mmHg 40%
08:00 +23°C° 0 mm 2 m/s 688 mmHg 35%
09:00 +25°C° 0 mm 3 m/s 688 mmHg 33%
10:00 +26°C° 0 mm 3 m/s 688 mmHg 31%
11:00 +28°C° 0 mm 3 m/s 688 mmHg 30%
12:00 +29°C° 0 mm 3 m/s 688 mmHg 29%
13:00 +29°C° 0 mm 3 m/s 688 mmHg 28%
14:00 +30°C° 0 mm 3 m/s 687 mmHg 27%
15:00 +30°C° 0 mm 3 m/s 687 mmHg 28%
16:00 +30°C° 0 mm 3 m/s 687 mmHg 28%
17:00 +29°C° 0 mm 3 m/s 687 mmHg 28%
18:00 +27°C° 0 mm 2 m/s 687 mmHg 32%
19:00 +25°C° 0 mm 2 m/s 687 mmHg 36%
20:00 +23°C° 0 mm 2 m/s 687 mmHg 40%
21:00 +23°C° 0 mm 2 m/s 687 mmHg 39%
22:00 +21°C° 0 mm 2 m/s 686 mmHg 37%
23:00 +21°C° 0 mm 2 m/s 686 mmHg 36%

28 Junho, Segunda-feira

Tempo Temperatura Precipitação Vento Pressão Humidade
00:00 +21°C° 0 mm 2 m/s 686 mmHg 35%
01:00 +20°C° 0 mm 2 m/s 686 mmHg 34%
02:00 +20°C° 0 mm 2 m/s 686 mmHg 33%
03:00 +20°C° 0 mm 2 m/s 686 mmHg 32%
04:00 +20°C° 0 mm 2 m/s 686 mmHg 31%
05:00 +20°C° 0 mm 2 m/s 686 mmHg 29%
06:00 +23°C° 0 mm 2 m/s 686 mmHg 28%
07:00 +25°C° 0 mm 2 m/s 687 mmHg 27%
08:00 +27°C° 0 mm 1 m/s 687 mmHg 26%
09:00 +29°C° 0 mm 1 m/s 687 mmHg 25%
10:00 +30°C° 0 mm 2 m/s 687 mmHg 25%
11:00 +31°C° 0 mm 2 m/s 687 mmHg 24%
12:00 +32°C° 0 mm 2 m/s 687 mmHg 24%
13:00 +34°C° 0 mm 2 m/s 687 mmHg 24%
14:00 +34°C° 0 mm 2 m/s 687 mmHg 24%
15:00 +34°C° 0 mm 2 m/s 687 mmHg 24%
16:00 +34°C° 0 mm 2 m/s 687 mmHg 24%
17:00 +34°C° 0 mm 2 m/s 687 mmHg 25%
18:00 +31°C° 0 mm 2 m/s 687 mmHg 29%
19:00 +28°C° 0 mm 2 m/s 687 mmHg 33%
20:00 +26°C° 0 mm 2 m/s 687 mmHg 37%
21:00 +25°C° 0 mm 2 m/s 687 mmHg 37%
22:00 +24°C° 0 mm 2 m/s 687 mmHg 36%
23:00 +23°C° 0 mm 2 m/s 686 mmHg 36%

29 Junho, Terça-feira

Tempo Temperatura Precipitação Vento Pressão Humidade
00:00 +23°C° 0 mm 2 m/s 686 mmHg 35%
01:00 +23°C° 0 mm 2 m/s 686 mmHg 35%
02:00 +21°C° 0 mm 2 m/s 686 mmHg 34%
03:00 +21°C° 0 mm 2 m/s 686 mmHg 33%
04:00 +23°C° 0 mm 2 m/s 686 mmHg 32%
05:00 +23°C° 0 mm 2 m/s 686 mmHg 31%
06:00 +25°C° 0 mm 2 m/s 686 mmHg 28%
07:00 +27°C° 0 mm 1 m/s 686 mmHg 26%
08:00 +30°C° 0 mm 1 m/s 687 mmHg 23%
09:00 +31°C° 0 mm 1 m/s 687 mmHg 22%
10:00 +32°C° 0 mm 2 m/s 687 mmHg 21%
11:00 +34°C° 0 mm 2 m/s 687 mmHg 20%
12:00 +35°C° 0 mm 2 m/s 687 mmHg 20%
13:00 +36°C° 0 mm 2 m/s 686 mmHg 20%
14:00 +36°C° 0 mm 2 m/s 686 mmHg 19%
15:00 +36°C° 0 mm 2 m/s 686 mmHg 20%
16:00 +36°C° 0 mm 2 m/s 686 mmHg 20%
17:00 +36°C° 0 mm 2 m/s 686 mmHg 20%
18:00 +32°C° 0 mm 2 m/s 686 mmHg 24%
19:00 +29°C° 0 mm 2 m/s 686 mmHg 29%
20:00 +27°C° 0 mm 2 m/s 686 mmHg 33%
21:00 +26°C° 0 mm 2 m/s 686 mmHg 33%
22:00 +26°C° 0 mm 2 m/s 686 mmHg 32%
23:00 +25°C° 0 mm 2 m/s 686 mmHg 31%

30 Junho, Quarta-feira

Tempo Temperatura Precipitação Vento Pressão Humidade
00:00 +25°C° 0 mm 2 m/s 685 mmHg 31%
01:00 +24°C° 0 mm 2 m/s 685 mmHg 31%
02:00 +24°C° 0 mm 2 m/s 685 mmHg 32%
03:00 +24°C° 0 mm 2 m/s 685 mmHg 32%
04:00 +25°C° 0 mm 2 m/s 685 mmHg 33%
05:00 +25°C° 0 mm 2 m/s 685 mmHg 34%
06:00 +27°C° 0 mm 2 m/s 685 mmHg 31%
07:00 +29°C° 0 mm 2 m/s 686 mmHg 28%
08:00 +32°C° 0 mm 2 m/s 686 mmHg 25%
09:00 +34°C° 0 mm 2 m/s 686 mmHg 24%
10:00 +35°C° 0 mm 3 m/s 686 mmHg 23%
11:00 +36°C° 0 mm 4 m/s 686 mmHg 22%
12:00 +36°C° 0 mm 4 m/s 686 mmHg 22%
13:00 +36°C° 0 mm 4 m/s 686 mmHg 22%
14:00 +37°C° 0 mm 4 m/s 685 mmHg 22%
15:00 +36°C° 0 mm 4 m/s 685 mmHg 23%
16:00 +35°C° 0 mm 5 m/s 685 mmHg 24%
17:00 +35°C° 0 mm 5 m/s 685 mmHg 25%
18:00 +32°C° 0 mm 4 m/s 685 mmHg 30%
19:00 +29°C° 0 mm 3 m/s 685 mmHg 36%
20:00 +26°C° 0 mm 2 m/s 685 mmHg 42%
21:00 +25°C° 0 mm 2 m/s 685 mmHg 42%
22:00 +25°C° 0 mm 2 m/s 685 mmHg 42%
23:00 +24°C° 0 mm 2 m/s 684 mmHg 42%
Mostrar mais